Lakeland Region, FL

9:56 PM EDT on April 23, 2018 (GMT -0400)
Lakeland Linder Regional

Weather History for KLAL - November, 2012

Change the Weather History Date:

Tuesday, November 13, 2012

  Actual Average Record
Temperature  
Mean Temperature 71 °F -  
Max Temperature 80 °F 75 °F 87 °F (1986)
Min Temperature 62 °F 58 °F 45 °F (1991)
Cooling Degree Days 6    
Growing Degree Days 21 (Base 50)    
Moisture  
Dew Point 61 °F    
Average Humidity 81    
Maximum Humidity 100    
Minimum Humidity 45    
Precipitation  
Precipitation 0.00 in - - ()
Sea Level Pressure  
Sea Level Pressure 30.15 in    
Wind  
Wind Speed 2 mph (NE)    
Max Wind Speed 8 mph    
Max Gust Speed -    
Visibility 10 miles    
Events      
Averages and records for this station are not official NWS values.
T = Trace of Precipitation, MM = Missing Value Source: NWS Daily Summary

Daily Weather History Graph

Daily Weather History Graph

Search for Another Location

Airport or City:

Astronomy

Nov. 13, 2012 Rise Set
Actual Time 6:48 AM EST 5:36 PM EST
Civil Twilight 6:23 AM EST 6:00 PM EST
Nautical Twilight 5:55 AM EST 6:29 PM EST
Astronomical Twilight 5:27 AM EST 6:56 PM EST
Moon 6:24 AM EST (11/13) 5:30 PM EST (11/13)
Length of Visible Light 11h 37m
Length of Day
10h 47m
Waning Crescent, 0% of the Moon is Illuminated
Nov 13
Waning Crescent
Nov 13
New
Nov 20
First Quarter
Nov 28
Full
Dec 6
Last Quarter

Hourly Weather History & Observations

Time (EST) Temp. Heat Index Dew Point Humidity Pressure Visibility Wind Dir Wind Speed Gust Speed Precip Events Conditions
12:15 AM 68.0 °F - 62.6 °F 83% 30.18 in 10.0 mi East 4.6 mph - N/A   Clear
12:35 AM 66.2 °F - 62.6 °F 88% 30.17 in 10.0 mi East 5.8 mph - N/A   Clear
12:55 AM 66.2 °F - 62.6 °F 88% 30.17 in 10.0 mi Calm Calm - N/A   Clear
1:15 AM 64.4 °F - 62.6 °F 94% 30.17 in 10.0 mi Calm Calm - N/A   Mostly Cloudy
1:35 AM 64.4 °F - 62.6 °F 94% 30.16 in 10.0 mi Calm Calm - N/A   Overcast
1:55 AM 64.4 °F - 62.6 °F 94% 30.16 in 10.0 mi Calm Calm - N/A   Overcast
2:35 AM 64.4 °F - 62.6 °F 94% 30.16 in 10.0 mi Calm Calm - N/A   Clear
2:55 AM 62.6 °F - 62.6 °F 100% 30.16 in 7.0 mi Calm Calm - N/A   Mostly Cloudy
3:15 AM 64.4 °F - 62.6 °F 94% 30.16 in 7.0 mi Calm Calm - N/A   Mostly Cloudy
3:35 AM 64.4 °F - 62.6 °F 94% 30.16 in 7.0 mi Calm Calm - N/A   Scattered Clouds
3:55 AM 62.6 °F - 60.8 °F 94% 30.16 in 7.0 mi Calm Calm - N/A   Scattered Clouds
4:55 AM 62.6 °F - 60.8 °F 94% 30.15 in 7.0 mi NNE 3.5 mph - N/A   Scattered Clouds
5:15 AM 62.6 °F - 60.8 °F 94% 30.15 in 7.0 mi Calm Calm - N/A   Clear
5:35 AM 62.6 °F - 60.8 °F 94% 30.16 in 5.0 mi Calm Calm - N/A   Clear
5:50 AM 62.6 °F - 60.8 °F 94% 30.16 in 7.0 mi North 3.5 mph - N/A   Scattered Clouds
6:50 AM 62.6 °F - 60.8 °F 94% 30.16 in 7.0 mi Calm Calm - N/A   Mostly Cloudy
7:54 AM 64.4 °F - 64.4 °F 100% 30.19 in 7.0 mi Calm Calm - N/A   Mostly Cloudy
8:50 AM 69.8 °F - 66.2 °F 88% 30.19 in 10.0 mi ENE 3.5 mph - N/A   Mostly Cloudy
9:50 AM 75.2 °F - 64.4 °F 69% 30.20 in 12.0 mi ENE 5.8 mph - N/A   Mostly Cloudy
10:56 AM 78.8 °F - 62.6 °F 57% 30.19 in 12.0 mi ENE 4.6 mph - N/A   Mostly Cloudy
11:50 AM 80.6 °F 80.8 °F 57.2 °F 45% 30.17 in 12.0 mi NE 5.8 mph - N/A   Mostly Cloudy
12:51 PM 80.6 °F 80.8 °F 57.2 °F 45% 30.14 in 12.0 mi East 8.1 mph - N/A   Overcast
1:50 PM 80.6 °F 81.1 °F 59.0 °F 48% 30.12 in 15.0 mi ENE 4.6 mph - N/A   Overcast
2:55 PM 78.8 °F - 59.0 °F 51% 30.11 in 15.0 mi ENE 5.8 mph - N/A   Mostly Cloudy
3:50 PM 78.8 °F - 57.2 °F 47% 30.11 in 10.0 mi ENE 5.8 mph - N/A   Mostly Cloudy
4:50 PM 77.0 °F - 60.8 °F 57% 30.11 in 15.0 mi NNE 4.6 mph - N/A   Mostly Cloudy
5:50 PM 73.4 °F - 59.0 °F 61% 30.11 in 15.0 mi NNE 4.6 mph - N/A   Mostly Cloudy
6:50 PM 71.6 °F - 59.0 °F 64% 30.12 in 15.0 mi NE 3.5 mph - N/A   Scattered Clouds
7:50 PM 69.8 °F - 59.0 °F 68% 30.13 in 15.0 mi Calm Calm - N/A   Scattered Clouds
8:50 PM 66.2 °F - 60.8 °F 83% 30.14 in 15.0 mi ENE 4.6 mph - N/A   Clear
9:50 PM 66.2 °F - 60.8 °F 83% 30.15 in - Calm Calm - N/A   Clear
9:55 PM 64.4 °F - 59.0 °F 83% 30.15 in 10.0 mi Calm Calm - N/A   Clear
10:15 PM 64.4 °F - 60.8 °F 88% 30.16 in 10.0 mi NE 3.5 mph - N/A   Clear
10:35 PM 64.4 °F - 60.8 °F 88% 30.15 in 10.0 mi ENE 4.6 mph - N/A   Clear
10:55 PM 66.2 °F - 62.6 °F 88% 30.15 in 10.0 mi ENE 5.8 mph - N/A   Clear
11:15 PM 64.4 °F - 62.6 °F 94% 30.16 in 10.0 mi Calm Calm - N/A   Clear
11:35 PM 62.6 °F - 60.8 °F 94% 30.16 in 10.0 mi Calm Calm - N/A   Clear
11:55 PM 62.6 °F - 60.8 °F 94% 30.16 in 10.0 mi Calm Calm - N/A   Clear